Погода в Большом Синковце

Россия / Орловская область     52°40′54″N   37°13′27″E
темп.,
°C
ветер,
м/с
пор.,
м/с
влажн.,
%
обл.,
%
осадки,
мм/ч
давл.,
гПа
погр.,
м
27 января, чт
чт2700:00−12ссз229773 0.1 101829
03:00−16ссз2210090 0.1 10199
06:00−15сз229892 0.1 101927
09:00−17зсз1110093 0.1 10209
12:00−11ююз229541 0.1 101974
15:00−11ююз2496100 0.1 1018154
18:00−13ю369775 0.0 101793
21:00−15ю389872 0.0 1017105
28 января, пт
пт2800:00−16ю499979 0.0 1015131
03:00−15ю4119783 0.0 1014182
06:00−12ююв5129591 0.2 1011265
09:00−10ююв61296100 0.3 1010296
12:00−7ююв6139599 0.4 1008379
15:00−5ю61296100 1.1 1006481
18:00−3ю61296100 0.6 1005448
21:00−3ю4109793 0.9 1005308
29 января, сб
сб2900:00−2ююз4109795 0.4 1005361
03:00−5ю3799100 0.5 1005138
06:00−3ю4997100 0.2 1004255
09:00−4ю379870 0.6 1005197
12:00−3ююз369882 0.1 1005228
15:00−2юз2498100 0.3 1005218
18:00−3зюз129984 0.6 100635
21:00−3зсз5109584 0.9 1007313
30 января, вс
вс3000:00−7зсз599582 0.1 1008224
03:00−9зюз399691 0.1 1008210
06:00−9ююз4997100 0.1 1006215
09:00−7ююз71592100 0.1 1003500
12:00−5ююз91994100 0.4 999939
15:00−4ююз101894100 2.7 994974
18:00−4ююз81695100 1.0 992725
21:00−3ююз71594100 1.5 991561
31 января, пн
пн3100:00−1ююз6139360 0.6 989686
03:00−2ю61396100 0.8 988753
06:00−2ю81696100 0.7 986946
09:00−2ю71497100 2.2 985825
12:00−1юз61096100 0.8 986653
15:00−1зюз61095100 1.3 987681
18:00−3зюз8159393 0.3 991580
21:00−6з71491100 0.4 994498